TimeEDT,TemperatureF,Dew PointF,Humidity,Sea Level PressureIn,VisibilityMPH,Wind Direction,Wind SpeedMPH,Gust SpeedMPH,PrecipitationIn,Events,Conditions,WindDirDegrees,DateUTC
12:53 AM,59.0,54.0,83,30.02,10.0,SW,8.1,-,N/A,,Clear,220,2012-11-01 04:53:00
1:53 AM,60.1,55.0,83,30.02,10.0,SW,6.9,-,N/A,,Clear,230,2012-11-01 05:53:00
2:53 AM,59.0,55.0,87,30.01,10.0,SW,6.9,-,N/A,,Clear,220,2012-11-01 06:53:00
3:53 AM,59.0,55.9,90,30.01,10.0,WSW,5.8,-,N/A,,Clear,240,2012-11-01 07:53:00
4:53 AM,57.9,55.9,93,30.01,10.0,SW,3.5,-,N/A,,Clear,220,2012-11-01 08:53:00
5:53 AM,57.0,55.0,93,30.01,10.0,Calm,Calm,-,N/A,,Clear,0,2012-11-01 09:53:00
8:53 AM,61.0,57.9,90,30.03,9.0,Calm,Calm,-,N/A,,Clear,0,2012-11-01 12:53:00
9:53 AM,66.9,59.0,76,30.04,10.0,South,3.5,-,N/A,,Clear,180,2012-11-01 13:53:00
10:53 AM,72.0,60.1,66,30.04,10.0,SW,3.5,-,N/A,,Clear,230,2012-11-01 14:53:00
11:53 AM,75.0,57.9,55,30.03,10.0,West,8.1,-,N/A,,Clear,280,2012-11-01 15:53:00
12:53 PM,75.9,57.9,54,30.00,10.0,West,6.9,16.1,N/A,,Partly Cloudy,270,2012-11-01 16:53:00
1:53 PM,78.1,57.0,48,29.97,10.0,West,12.7,-,N/A,,Scattered Clouds,270,2012-11-01 17:53:00
2:53 PM,77.0,57.0,50,29.95,10.0,WNW,16.1,21.9,N/A,,Overcast,290,2012-11-01 18:53:00
3:53 PM,75.9,57.9,54,29.94,10.0,West,12.7,21.9,N/A,,Overcast,280,2012-11-01 19:53:00
4:53 PM,75.0,60.1,60,29.95,10.0,West,12.7,-,N/A,,Mostly Cloudy,270,2012-11-01 20:53:00
5:53 PM,73.0,61.0,66,29.96,10.0,West,8.1,-,N/A,,Clear,270,2012-11-01 21:53:00
6:53 PM,71.1,57.9,63,29.97,10.0,West,10.4,-,N/A,,Partly Cloudy,270,2012-11-01 22:53:00
7:53 PM,66.9,57.9,73,29.98,10.0,West,6.9,-,N/A,,Clear,280,2012-11-01 23:53:00
8:53 PM,64.0,59.0,84,29.99,10.0,West,3.5,-,N/A,,Clear,270,2012-11-02 00:53:00
9:53 PM,62.1,59.0,90,30.02,10.0,WNW,4.6,-,N/A,,Clear,300,2012-11-02 01:53:00
10:53 PM,61.0,55.9,83,30.03,10.0,NW,6.9,-,N/A,,Clear,320,2012-11-02 02:53:00
11:53 PM,60.1,55.9,86,30.04,10.0,NW,5.8,-,N/A,,Clear,310,2012-11-02 03:53:00